Station Historical Data
Daily Summary for December 16, 2017 Units:  English    Metric   Both
« Previous Day
Next Day »
Daily Weekly Monthly Yearly Custom
  High: Low: Average:
Temperature: 26.4 °F 21.1 °F 23.9 °F
Dew Point: 21.9 °F 12.1 °F 17.1 °F
Humidity: 83% 64% 75%
Wind Speed: 13.0mph 0.0mph 3.6mph
Wind Gust: 19.0mph - -
Wind- - SSW
Pressure: 30.26 in 29.88 in -
Precipitation: 0.00 in    
Historical Graphs
 
 
Tabular Data for December 16, 2017
Time Temperature Dew Point Pressure Wind Wind Speed Wind Gust Humidity Rainfall Rate (Hourly)
00:04 22.7 °F 13.7 °F 29.88 in West 7.0 mph 14.0 mph 68% 0.00 in
00:14 22.2 °F 13.2 °F 29.88 in West 7.0 mph 14.0 mph 68% 0.00 in
00:19 22.2 °F 13.2 °F 29.88 in West 6.0 mph 15.0 mph 68% 0.00 in
00:24 22.1 °F 13.1 °F 29.88 in West 7.0 mph 13.0 mph 68% 0.00 in
00:29 22.0 °F 13.0 °F 29.88 in West 7.0 mph 14.0 mph 68% 0.00 in
00:34 21.9 °F 13.0 °F 29.88 in West 7.0 mph 19.0 mph 68% 0.00 in
00:39 21.9 °F 13.0 °F 29.88 in WNW 13.0 mph 15.0 mph 68% 0.00 in
00:44 21.9 °F 13.0 °F 29.88 in WNW 6.0 mph 15.0 mph 68% 0.00 in
00:49 22.0 °F 12.7 °F 29.88 in WNW 5.0 mph 15.0 mph 67% 0.00 in
00:54 22.0 °F 12.4 °F 29.88 in West 5.0 mph 12.0 mph 66% 0.00 in
00:59 22.2 °F 12.6 °F 29.89 in West 6.0 mph 15.0 mph 66% 0.00 in
01:04 22.4 °F 12.4 °F 29.88 in West 7.0 mph 18.0 mph 65% 0.00 in
01:09 22.5 °F 12.5 °F 29.88 in West 9.0 mph 18.0 mph 65% 0.00 in
01:14 22.4 °F 12.1 °F 29.88 in West 7.0 mph 15.0 mph 64% 0.00 in
01:19 22.4 °F 12.4 °F 29.89 in West 7.0 mph 16.0 mph 65% 0.00 in
01:24 22.5 °F 12.5 °F 29.89 in West 8.0 mph 16.0 mph 65% 0.00 in
01:29 22.5 °F 12.8 °F 29.90 in West 8.0 mph 17.0 mph 66% 0.00 in
01:34 22.5 °F 12.8 °F 29.90 in West 8.0 mph 17.0 mph 66% 0.00 in
01:39 22.5 °F 12.8 °F 29.90 in West 5.0 mph 15.0 mph 66% 0.00 in
01:44 22.3 °F 12.7 °F 29.91 in West 7.0 mph 15.0 mph 66% 0.00 in
01:49 22.2 °F 12.6 °F 29.91 in West 7.0 mph 13.0 mph 66% 0.00 in
01:54 22.1 °F 12.8 °F 29.91 in WSW 5.0 mph 17.0 mph 67% 0.00 in
01:59 21.9 °F 12.6 °F 29.91 in WSW 6.0 mph 9.0 mph 67% 0.00 in
02:04 21.9 °F 12.6 °F 29.91 in West 6.0 mph 13.0 mph 67% 0.00 in
02:09 21.8 °F 12.5 °F 29.91 in West 6.0 mph 14.0 mph 67% 0.00 in
02:14 21.8 °F 12.2 °F 29.91 in West 4.0 mph 10.0 mph 66% 0.00 in
02:19 22.0 °F 12.4 °F 29.92 in West 6.0 mph 16.0 mph 66% 0.00 in
02:24 22.2 °F 12.2 °F 29.92 in West 7.0 mph 16.0 mph 65% 0.00 in
02:29 22.5 °F 12.5 °F 29.92 in West 7.0 mph 18.0 mph 65% 0.00 in
02:34 22.8 °F 12.8 °F 29.92 in West 9.0 mph 19.0 mph 65% 0.00 in
02:44 23.0 °F 13.0 °F 29.93 in West 4.0 mph 18.0 mph 65% 0.00 in
02:49 23.0 °F 13.3 °F 29.93 in West 8.0 mph 18.0 mph 66% 0.00 in
02:59 23.2 °F 13.5 °F 29.93 in West 8.0 mph 17.0 mph 66% 0.00 in
03:04 23.2 °F 13.5 °F 29.93 in West 8.0 mph 17.0 mph 66% 0.00 in
03:09 23.3 °F 14.0 °F 29.93 in West 9.0 mph 17.0 mph 67% 0.00 in
03:14 23.3 °F 14.0 °F 29.93 in West 8.0 mph 17.0 mph 67% 0.00 in
03:19 23.3 °F 14.3 °F 29.93 in West 7.0 mph 15.0 mph 68% 0.00 in
03:20 23.3 °F 14.3 °F 29.93 in West 6.0 mph 13.0 mph 68% 0.00 in
03:29 23.2 °F 14.5 °F 29.93 in West 9.0 mph 12.0 mph 69% 0.00 in
03:34 23.3 °F 14.6 °F 29.92 in West 8.0 mph 16.0 mph 69% 0.00 in
03:44 23.3 °F 15.0 °F 29.93 in West 10.0 mph 14.0 mph 70% 0.00 in
03:49 23.3 °F 15.0 °F 29.93 in West 8.0 mph 15.0 mph 70% 0.00 in
03:54 23.4 °F 15.1 °F 29.93 in West 8.0 mph 13.0 mph 70% 0.00 in
03:59 23.4 °F 15.4 °F 29.93 in West 8.0 mph 17.0 mph 71% 0.00 in
04:04 23.4 °F 15.4 °F 29.92 in West 8.0 mph 17.0 mph 71% 0.00 in
04:09 23.4 °F 15.4 °F 29.92 in West 7.0 mph 15.0 mph 71% 0.00 in
04:14 23.5 °F 15.8 °F 29.92 in West 6.0 mph 13.0 mph 72% 0.00 in
04:19 23.6 °F 15.9 °F 29.92 in West 7.0 mph 15.0 mph 72% 0.00 in
04:24 23.6 °F 15.9 °F 29.92 in West 6.0 mph 15.0 mph 72% 0.00 in
04:29 23.6 °F 15.9 °F 29.91 in West 6.0 mph 15.0 mph 72% 0.00 in
04:34 23.6 °F 15.9 °F 29.91 in West 6.0 mph 11.0 mph 72% 0.00 in
04:39 23.6 °F 15.9 °F 29.91 in WSW 7.0 mph 12.0 mph 72% 0.00 in
04:44 23.7 °F 16.0 °F 29.91 in West 6.0 mph 14.0 mph 72% 0.00 in
04:49 23.7 °F 16.0 °F 29.90 in West 7.0 mph 14.0 mph 72% 0.00 in
04:54 23.7 °F 16.0 °F 29.91 in West 7.0 mph 13.0 mph 72% 0.00 in
04:59 23.8 °F 16.1 °F 29.91 in WNW 4.0 mph 14.0 mph 72% 0.00 in
05:04 23.8 °F 16.4 °F 29.91 in WNW 3.0 mph 10.0 mph 73% 0.00 in
05:09 23.8 °F 16.4 °F 29.91 in West 6.0 mph 15.0 mph 73% 0.00 in
05:14 23.8 °F 16.4 °F 29.91 in West 6.0 mph 15.0 mph 73% 0.00 in
05:19 23.8 °F 16.7 °F 29.91 in West 5.0 mph 11.0 mph 74% 0.00 in
05:24 23.8 °F 16.7 °F 29.92 in WSW 5.0 mph 13.0 mph 74% 0.00 in
05:29 23.8 °F 16.7 °F 29.92 in West 7.0 mph 11.0 mph 74% 0.00 in
05:34 23.7 °F 16.6 °F 29.92 in West 7.0 mph 14.0 mph 74% 0.00 in
05:39 23.7 °F 16.6 °F 29.92 in West 7.0 mph 14.0 mph 74% 0.00 in
05:44 23.8 °F 16.7 °F 29.93 in WNW 6.0 mph 14.0 mph 74% 0.00 in
05:49 23.8 °F 16.7 °F 29.93 in WNW 5.0 mph 14.0 mph 74% 0.00 in
05:54 23.8 °F 16.7 °F 29.93 in West 7.0 mph 15.0 mph 74% 0.00 in
05:59 23.9 °F 16.8 °F 29.93 in WNW 3.0 mph 14.0 mph 74% 0.00 in
06:04 24.0 °F 16.9 °F 29.93 in West 5.0 mph 10.0 mph 74% 0.00 in
06:09 24.0 °F 16.6 °F 29.93 in WNW 7.0 mph 12.0 mph 73% 0.00 in
06:14 24.2 °F 16.8 °F 29.93 in West 6.0 mph 12.0 mph 73% 0.00 in
06:19 24.2 °F 16.8 °F 29.93 in West 6.0 mph 11.0 mph 73% 0.00 in
06:24 24.3 °F 16.9 °F 29.93 in West 6.0 mph 11.0 mph 73% 0.00 in
06:29 24.3 °F 16.9 °F 29.93 in West 5.0 mph 15.0 mph 73% 0.00 in
06:34 24.4 °F 16.7 °F 29.93 in WNW 6.0 mph 15.0 mph 72% 0.00 in
06:39 24.5 °F 16.8 °F 29.93 in WNW 7.0 mph 13.0 mph 72% 0.00 in
06:44 24.6 °F 16.9 °F 29.94 in West 6.0 mph 14.0 mph 72% 0.00 in
06:49 24.6 °F 16.9 °F 29.94 in West 8.0 mph 11.0 mph 72% 0.00 in
06:54 24.6 °F 16.9 °F 29.94 in West 8.0 mph 12.0 mph 72% 0.00 in
06:59 24.6 °F 16.9 °F 29.95 in West 6.0 mph 11.0 mph 72% 0.00 in
07:04 24.6 °F 16.9 °F 29.95 in WNW 4.0 mph 10.0 mph 72% 0.00 in
07:09 24.5 °F 16.8 °F 29.95 in West 4.0 mph 11.0 mph 72% 0.00 in
07:14 24.6 °F 16.9 °F 29.95 in WNW 5.0 mph 13.0 mph 72% 0.00 in
07:19 24.5 °F 16.8 °F 29.96 in NW 8.0 mph 10.0 mph 72% 0.00 in
07:24 24.5 °F 16.8 °F 29.96 in WNW 6.0 mph 11.0 mph 72% 0.00 in
07:29 24.5 °F 16.8 °F 29.96 in WNW 6.0 mph 15.0 mph 72% 0.00 in
07:34 24.5 °F 16.8 °F 29.95 in WNW 6.0 mph 15.0 mph 72% 0.00 in
07:39 24.4 °F 16.7 °F 29.95 in West 5.0 mph 12.0 mph 72% 0.00 in
07:44 24.4 °F 16.7 °F 29.95 in West 8.0 mph 12.0 mph 72% 0.00 in
07:49 24.4 °F 17.0 °F 29.95 in WNW 4.0 mph 11.0 mph 73% 0.00 in
07:54 24.4 °F 17.0 °F 29.95 in WNW 6.0 mph 12.0 mph 73% 0.00 in
07:59 24.4 °F 17.0 °F 29.95 in WNW 6.0 mph 12.0 mph 73% 0.00 in
08:04 24.4 °F 17.0 °F 29.95 in WNW 3.0 mph 9.0 mph 73% 0.00 in
08:09 24.4 °F 17.0 °F 29.95 in NW 4.0 mph 8.0 mph 73% 0.00 in
08:14 24.4 °F 17.3 °F 29.95 in West 3.0 mph 8.0 mph 74% 0.00 in
08:19 24.4 °F 17.3 °F 29.95 in WNW 5.0 mph 10.0 mph 74% 0.00 in
08:24 24.5 °F 17.4 °F 29.95 in West 4.0 mph 7.0 mph 74% 0.00 in
08:29 24.7 °F 17.3 °F 29.95 in WNW 5.0 mph 9.0 mph 73% 0.00 in
08:34 24.7 °F 17.3 °F 29.95 in West 6.0 mph 10.0 mph 73% 0.00 in
08:39 24.8 °F 17.4 °F 29.96 in West 4.0 mph 10.0 mph 73% 0.00 in
08:44 24.8 °F 17.4 °F 29.96 in WNW 8.0 mph 8.0 mph 73% 0.00 in
08:49 24.9 °F 17.5 °F 29.96 in WNW 3.0 mph 10.0 mph 73% 0.00 in
08:54 24.9 °F 17.5 °F 29.96 in WNW 6.0 mph 8.0 mph 73% 0.00 in
08:59 24.9 °F 17.5 °F 29.96 in WSW 11.0 mph 11.0 mph 73% 0.00 in
09:04 25.0 °F 17.6 °F 29.97 in WNW 4.0 mph 11.0 mph 73% 0.00 in
09:14 25.2 °F 18.1 °F 29.97 in WNW 3.0 mph 7.0 mph 74% 0.00 in
09:19 25.2 °F 18.1 °F 29.97 in WNW 4.0 mph 9.0 mph 74% 0.00 in
09:24 25.2 °F 18.1 °F 29.97 in West 4.0 mph 9.0 mph 74% 0.00 in
09:29 25.3 °F 18.2 °F 29.97 in WSW 2.0 mph 5.0 mph 74% 0.00 in
09:34 25.3 °F 18.5 °F 29.98 in WSW 3.0 mph 6.0 mph 75% 0.00 in
09:39 25.3 °F 18.5 °F 29.98 in WSW 3.0 mph 5.0 mph 75% 0.00 in
09:44 25.4 °F 18.6 °F 29.98 in WSW 4.0 mph 5.0 mph 75% 0.00 in
09:49 25.3 °F 18.5 °F 29.98 in WSW 3.0 mph 6.0 mph 75% 0.00 in
09:54 25.4 °F 18.6 °F 29.99 in West 1.0 mph 4.0 mph 75% 0.00 in
09:59 25.4 °F 18.6 °F 29.99 in West 1.0 mph 6.0 mph 75% 0.00 in
10:04 25.4 °F 18.6 °F 29.99 in WSW 6.0 mph 6.0 mph 75% 0.00 in
10:09 25.5 °F 18.7 °F 29.99 in WSW 3.0 mph 8.0 mph 75% 0.00 in
10:19 25.6 °F 18.8 °F 29.99 in West 4.0 mph 6.0 mph 75% 0.00 in
10:24 25.7 °F 18.9 °F 30.00 in WNW 2.0 mph 7.0 mph 75% 0.00 in
10:29 25.7 °F 18.9 °F 30.00 in WNW 2.0 mph 7.0 mph 75% 0.00 in
10:34 25.8 °F 18.7 °F 30.00 in West 3.0 mph 8.0 mph 74% 0.00 in
10:39 25.8 °F 18.7 °F 30.00 in West 5.0 mph 7.0 mph 74% 0.00 in
10:44 25.8 °F 18.7 °F 30.00 in NW 4.0 mph 8.0 mph 74% 0.00 in
10:49 25.7 °F 18.6 °F 30.00 in WNW 4.0 mph 8.0 mph 74% 0.00 in
10:54 25.8 °F 18.7 °F 30.00 in WNW 3.0 mph 6.0 mph 74% 0.00 in
10:59 25.8 °F 18.7 °F 30.00 in WNW 3.0 mph 6.0 mph 74% 0.00 in
11:04 25.9 °F 18.7 °F 30.00 in NW 3.0 mph 6.0 mph 74% 0.00 in
11:09 25.9 °F 18.7 °F 30.00 in WNW 2.0 mph 7.0 mph 74% 0.00 in
11:14 25.9 °F 18.7 °F 30.00 in WNW 4.0 mph 7.0 mph 74% 0.00 in
11:19 26.0 °F 18.8 °F 30.00 in WNW 3.0 mph 7.0 mph 74% 0.00 in
11:24 26.0 °F 18.8 °F 30.00 in WNW 3.0 mph 7.0 mph 74% 0.00 in
11:29 26.1 °F 18.9 °F 30.00 in WNW 2.0 mph 7.0 mph 74% 0.00 in
11:34 26.1 °F 18.9 °F 30.00 in West 2.0 mph 7.0 mph 74% 0.00 in
11:39 26.1 °F 19.3 °F 30.00 in West 4.0 mph 5.0 mph 75% 0.00 in
11:44 26.1 °F 19.3 °F 30.00 in NW 3.0 mph 8.0 mph 75% 0.00 in
11:49 26.0 °F 19.5 °F 30.00 in West 4.0 mph 8.0 mph 76% 0.00 in
11:54 25.9 °F 19.4 °F 30.01 in WNW 4.0 mph 8.0 mph 76% 0.00 in
11:59 25.9 °F 19.7 °F 30.01 in WNW 4.0 mph 7.0 mph 77% 0.00 in
12:04 25.8 °F 19.6 °F 30.01 in WNW 3.0 mph 7.0 mph 77% 0.00 in
12:09 25.8 °F 19.9 °F 30.01 in WNW 3.0 mph 7.0 mph 78% 0.00 in
12:10 25.8 °F 19.9 °F 30.01 in WNW 1.0 mph 3.0 mph 78% 0.00 in
12:19 25.8 °F 20.2 °F 30.01 in West 5.0 mph 6.0 mph 79% 0.00 in
12:24 25.8 °F 20.5 °F 30.01 in West 3.0 mph 6.0 mph 80% 0.00 in
12:29 25.7 °F 20.4 °F 30.01 in West 3.0 mph 5.0 mph 80% 0.00 in
12:34 25.8 °F 20.8 °F 30.02 in WNW 2.0 mph 5.0 mph 81% 0.00 in
12:39 25.8 °F 20.8 °F 30.01 in West 2.0 mph 5.0 mph 81% 0.00 in
12:44 25.8 °F 20.8 °F 30.01 in West 2.0 mph 5.0 mph 81% 0.00 in
12:49 25.9 °F 20.9 °F 30.02 in WSW 2.0 mph 4.0 mph 81% 0.00 in
12:54 25.9 °F 20.9 °F 30.02 in WSW 2.0 mph 4.0 mph 81% 0.00 in
12:59 25.9 °F 20.9 °F 30.02 in WSW 2.0 mph 4.0 mph 81% 0.00 in
13:04 26.0 °F 21.3 °F 30.02 in WSW 2.0 mph 4.0 mph 82% 0.00 in
13:09 26.0 °F 21.0 °F 30.02 in WSW 1.0 mph 4.0 mph 81% 0.00 in
13:14 26.1 °F 21.4 °F 30.02 in WSW 2.0 mph 3.0 mph 82% 0.00 in
13:19 26.0 °F 21.3 °F 30.02 in WSW 2.0 mph 4.0 mph 82% 0.00 in
13:24 26.0 °F 21.3 °F 30.02 in West 3.0 mph 4.0 mph 82% 0.00 in
13:29 26.0 °F 21.3 °F 30.02 in West 2.0 mph 4.0 mph 82% 0.00 in
13:34 26.0 °F 21.3 °F 30.02 in West 1.0 mph 3.0 mph 82% 0.00 in
13:39 26.1 °F 21.4 °F 30.02 in West 1.0 mph 4.0 mph 82% 0.00 in
13:44 26.1 °F 21.4 °F 30.02 in SW 3.0 mph 5.0 mph 82% 0.00 in
13:49 26.1 °F 21.4 °F 30.03 in SW 2.0 mph 3.0 mph 82% 0.00 in
13:54 26.3 °F 21.6 °F 30.03 in SW 2.0 mph 2.0 mph 82% 0.00 in
13:59 26.4 °F 21.7 °F 30.03 in SW 1.0 mph 3.0 mph 82% 0.00 in
14:04 26.4 °F 21.9 °F 30.03 in SW 1.0 mph 3.0 mph 83% 0.00 in
14:09 26.4 °F 21.7 °F 30.03 in SW 1.0 mph 3.0 mph 82% 0.00 in
14:14 26.4 °F 21.7 °F 30.03 in WSW 1.0 mph 4.0 mph 82% 0.00 in
14:19 26.4 °F 21.7 °F 30.04 in WSW 1.0 mph 4.0 mph 82% 0.00 in
14:24 26.3 °F 21.6 °F 30.04 in NE 3.0 mph 8.0 mph 82% 0.00 in
14:29 26.2 °F 21.5 °F 30.05 in NNE 1.0 mph 6.0 mph 82% 0.00 in
14:34 26.2 °F 21.5 °F 30.05 in NE 3.0 mph 6.0 mph 82% 0.00 in
14:44 26.4 °F 21.7 °F 30.06 in NE 2.0 mph 5.0 mph 82% 0.00 in
14:49 26.4 °F 21.7 °F 30.06 in NE 3.0 mph 5.0 mph 82% 0.00 in
14:54 26.4 °F 21.4 °F 30.07 in NE 3.0 mph 5.0 mph 81% 0.00 in
14:59 26.3 °F 21.3 °F 30.07 in NE 5.0 mph 6.0 mph 81% 0.00 in
15:04 26.2 °F 21.2 °F 30.08 in NE 3.0 mph 7.0 mph 81% 0.00 in
15:09 26.1 °F 21.1 °F 30.08 in NE 3.0 mph 7.0 mph 81% 0.00 in
15:14 26.0 °F 21.0 °F 30.08 in NE 2.0 mph 7.0 mph 81% 0.00 in
15:19 25.8 °F 20.8 °F 30.09 in NE 2.0 mph 5.0 mph 81% 0.00 in
15:24 25.6 °F 20.3 °F 30.09 in NE 3.0 mph 6.0 mph 80% 0.00 in
15:29 25.4 °F 20.1 °F 30.09 in NE 4.0 mph 6.0 mph 80% 0.00 in
15:34 25.2 °F 19.9 °F 30.09 in NE 3.0 mph 8.0 mph 80% 0.00 in
15:39 25.1 °F 19.8 °F 30.09 in NE 5.0 mph 7.0 mph 80% 0.00 in
15:44 24.8 °F 19.5 °F 30.10 in NE 3.0 mph 7.0 mph 80% 0.00 in
15:49 24.8 °F 19.5 °F 30.10 in NE 3.0 mph 6.0 mph 80% 0.00 in
15:54 24.6 °F 19.3 °F 30.10 in NE 3.0 mph 5.0 mph 80% 0.00 in
15:59 24.5 °F 19.2 °F 30.10 in NE 3.0 mph 5.0 mph 80% 0.00 in
16:04 24.4 °F 19.1 °F 30.10 in NE 5.0 mph 9.0 mph 80% 0.00 in
16:09 24.3 °F 19.0 °F 30.11 in NE 3.0 mph 8.0 mph 80% 0.00 in
16:14 24.1 °F 18.5 °F 30.11 in NE 4.0 mph 9.0 mph 79% 0.00 in
16:19 24.0 °F 18.4 °F 30.11 in NNE 3.0 mph 6.0 mph 79% 0.00 in
16:24 23.8 °F 18.2 °F 30.11 in NE 3.0 mph 7.0 mph 79% 0.00 in
16:29 23.7 °F 18.1 °F 30.12 in NE 3.0 mph 7.0 mph 79% 0.00 in
16:34 23.6 °F 18.0 °F 30.12 in NE 1.0 mph 4.0 mph 79% 0.00 in
16:39 23.6 °F 18.0 °F 30.12 in NE 2.0 mph 5.0 mph 79% 0.00 in
16:44 23.5 °F 17.9 °F 30.12 in NE 2.0 mph 5.0 mph 79% 0.00 in
16:49 23.4 °F 17.8 °F 30.12 in NE 3.0 mph 7.0 mph 79% 0.00 in
16:54 23.3 °F 17.7 °F 30.13 in NE 3.0 mph 7.0 mph 79% 0.00 in
16:59 23.2 °F 17.4 °F 30.13 in NE 3.0 mph 7.0 mph 78% 0.00 in
17:04 23.2 °F 17.7 °F 30.14 in ENE 2.0 mph 5.0 mph 79% 0.00 in
17:09 23.2 °F 17.7 °F 30.14 in ENE 2.0 mph 4.0 mph 79% 0.00 in
17:14 23.2 °F 17.7 °F 30.14 in NE 1.0 mph 4.0 mph 79% 0.00 in
17:19 23.2 °F 17.7 °F 30.14 in NE 2.0 mph 5.0 mph 79% 0.00 in
17:29 23.2 °F 17.7 °F 30.16 in Calm   3.0 mph 79% 0.00 in
17:34 23.1 °F 17.6 °F 30.16 in NE 2.0 mph 4.0 mph 79% 0.00 in
17:39 23.1 °F 17.3 °F 30.16 in Calm   4.0 mph 78% 0.00 in
17:44 23.1 °F 17.3 °F 30.17 in Calm     78% 0.00 in
17:49 23.1 °F 17.3 °F 30.17 in NE 2.0 mph 3.0 mph 78% 0.00 in
17:54 23.2 °F 17.7 °F 30.17 in NE 1.0 mph 3.0 mph 79% 0.00 in
18:04 23.2 °F 17.7 °F 30.17 in NE 2.0 mph 4.0 mph 79% 0.00 in
18:09 23.2 °F 17.7 °F 30.17 in NE 2.0 mph 4.0 mph 79% 0.00 in
18:14 23.2 °F 17.7 °F 30.17 in NE 2.0 mph 5.0 mph 79% 0.00 in
18:19 23.2 °F 17.7 °F 30.17 in Calm   3.0 mph 79% 0.00 in
18:24 23.2 °F 17.7 °F 30.18 in ENE 1.0 mph 3.0 mph 79% 0.00 in
18:29 23.1 °F 17.3 °F 30.18 in ENE 2.0 mph 4.0 mph 78% 0.00 in
18:34 23.1 °F 17.3 °F 30.19 in ENE 2.0 mph 4.0 mph 78% 0.00 in
18:39 23.1 °F 17.3 °F 30.19 in ENE 1.0 mph 3.0 mph 78% 0.00 in
18:44 23.1 °F 17.3 °F 30.19 in ENE 1.0 mph 3.0 mph 78% 0.00 in
18:49 23.1 °F 17.3 °F 30.19 in Calm   2.0 mph 78% 0.00 in
18:54 23.1 °F 17.3 °F 30.20 in Calm   2.0 mph 78% 0.00 in
18:59 23.1 °F 17.3 °F 30.20 in Calm     78% 0.00 in
19:04 23.1 °F 17.3 °F 30.20 in Calm     78% 0.00 in
19:09 23.1 °F 17.3 °F 30.20 in Calm     78% 0.00 in
19:14 23.1 °F 17.3 °F 30.21 in Calm     78% 0.00 in
19:19 23.1 °F 17.3 °F 30.21 in Calm     78% 0.00 in
19:24 23.1 °F 17.3 °F 30.21 in Calm     78% 0.00 in
19:29 23.1 °F 17.3 °F 30.21 in Calm     78% 0.00 in
19:34 23.1 °F 17.3 °F 30.21 in Calm     78% 0.00 in
19:39 23.1 °F 17.3 °F 30.21 in Calm     78% 0.00 in
19:44 23.1 °F 17.3 °F 30.21 in Calm     78% 0.00 in
19:49 23.1 °F 17.3 °F 30.21 in Calm     78% 0.00 in
19:54 23.1 °F 17.3 °F 30.21 in Calm     78% 0.00 in
19:59 23.1 °F 17.3 °F 30.22 in Calm     78% 0.00 in
20:04 23.1 °F 17.3 °F 30.22 in Calm     78% 0.00 in
20:09 23.1 °F 17.3 °F 30.21 in Calm     78% 0.00 in
20:14 23.1 °F 17.3 °F 30.22 in Calm     78% 0.00 in
20:19 23.0 °F 17.2 °F 30.22 in Calm     78% 0.00 in
20:24 23.0 °F 17.5 °F 30.22 in Calm     79% 0.00 in
20:29 23.0 °F 17.2 °F 30.23 in Calm     78% 0.00 in
20:34 23.0 °F 17.5 °F 30.23 in Calm     79% 0.00 in
20:39 23.0 °F 17.5 °F 30.23 in Calm     79% 0.00 in
20:44 22.9 °F 17.4 °F 30.23 in Calm     79% 0.00 in
20:49 22.9 °F 17.4 °F 30.23 in Calm     79% 0.00 in
20:54 22.9 °F 17.4 °F 30.23 in Calm     79% 0.00 in
20:59 22.9 °F 17.4 °F 30.23 in Calm     79% 0.00 in
21:04 22.8 °F 17.3 °F 30.23 in Calm     79% 0.00 in
21:09 22.9 °F 17.4 °F 30.23 in Calm     79% 0.00 in
21:14 22.9 °F 17.4 °F 30.23 in Calm     79% 0.00 in
21:19 22.8 °F 17.3 °F 30.23 in Calm     79% 0.00 in
21:24 22.8 °F 17.0 °F 30.23 in Calm     78% 0.00 in
21:29 22.7 °F 16.9 °F 30.23 in Calm     78% 0.00 in
21:34 22.7 °F 16.6 °F 30.23 in Calm     77% 0.00 in
21:39 22.7 °F 16.6 °F 30.24 in Calm     77% 0.00 in
21:44 22.7 °F 16.6 °F 30.24 in Calm     77% 0.00 in
21:49 22.7 °F 16.6 °F 30.24 in Calm     77% 0.00 in
21:59 22.7 °F 16.6 °F 30.24 in Calm     77% 0.00 in
22:04 22.7 °F 16.6 °F 30.24 in Calm     77% 0.00 in
22:09 22.6 °F 16.5 °F 30.24 in Calm   4.0 mph 77% 0.00 in
22:14 22.6 °F 16.5 °F 30.24 in NE 1.0 mph 5.0 mph 77% 0.00 in
22:19 22.5 °F 16.1 °F 30.24 in NE 2.0 mph 5.0 mph 76% 0.00 in
22:24 22.3 °F 15.6 °F 30.24 in NE 3.0 mph 7.0 mph 75% 0.00 in
22:34 22.1 °F 14.8 °F 30.24 in ENE 8.0 mph 8.0 mph 73% 0.00 in
22:39 21.9 °F 14.3 °F 30.24 in NE 3.0 mph 8.0 mph 72% 0.00 in
22:44 21.8 °F 14.2 °F 30.24 in NE 3.0 mph 8.0 mph 72% 0.00 in
22:49 21.8 °F 14.2 °F 30.25 in ENE 2.0 mph 5.0 mph 72% 0.00 in
22:54 21.7 °F 13.7 °F 30.24 in NE 2.0 mph 5.0 mph 71% 0.00 in
22:59 21.6 °F 13.6 °F 30.25 in NE 3.0 mph 4.0 mph 71% 0.00 in
23:04 21.6 °F 13.6 °F 30.25 in NE 2.0 mph 5.0 mph 71% 0.00 in
23:09 21.5 °F 13.5 °F 30.25 in NE 3.0 mph 7.0 mph 71% 0.00 in
23:14 21.4 °F 13.5 °F 30.25 in NE 5.0 mph 6.0 mph 71% 0.00 in
23:19 21.4 °F 13.5 °F 30.25 in ENE 2.0 mph 6.0 mph 71% 0.00 in
23:24 21.4 °F 13.5 °F 30.25 in ENE 2.0 mph 5.0 mph 71% 0.00 in
23:34 21.3 °F 13.0 °F 30.25 in NE 2.0 mph 7.0 mph 70% 0.00 in
23:39 21.2 °F 12.9 °F 30.26 in NE 4.0 mph 8.0 mph 70% 0.00 in
23:44 21.2 °F 13.3 °F 30.26 in NNE 4.0 mph 5.0 mph 71% 0.00 in
23:49 21.1 °F 13.2 °F 30.26 in NE 2.0 mph 5.0 mph 71% 0.00 in
23:54 21.2 °F 13.3 °F 30.25 in ENE 5.0 mph 8.0 mph 71% 0.00 in
23:59 21.1 °F 13.2 °F 30.26 in NE 3.0 mph 9.0 mph 71% 0.00 in
Buffalo, New York, USA
Compliments of Weather Underground - 2.25 mb